This is the latest recevied weather packets stored in our database for station/object OH2TH. If no packets are shown the sender has not sent any weather packets the latest 10 day(s).
| Time | Temp. | Humidity | Pressure | Rain* | Wind** | Luminosity | Snow |
|---|---|---|---|---|---|---|---|
| 1778129105 | 2.78° C | 56% | 101 hPa | - | - | - | - |
| 1778128204 | 2.78° C | 57% | 101 hPa | - | - | - | - |
| 1778127303 | 2.22° C | 60% | 101 hPa | - | - | - | - |
| 1778126402 | 1.11° C | 65% | 101 hPa | - | - | - | - |
| 1778125501 | - | 65% | 101 hPa | - | - | - | - |
| 1778124601 | - | 66% | 101 hPa | - | - | - | - |
| 1778123705 | -0.56° C | 72% | 101 hPa | - | - | - | - |
| 1778122804 | -0.56° C | 72% | 101 hPa | - | - | - | - |
| 1778121903 | -0.56° C | 73% | 101 hPa | - | - | - | - |
| 1778121002 | -0.56° C | 73% | 101 hPa | - | - | - | - |
| 1778120102 | -0.56° C | 74% | 101 hPa | - | - | - | - |
| 1778119200 | -0.56° C | 75% | 101 hPa | - | - | - | - |
| 1778118304 | -0.56° C | 74% | 101 hPa | - | - | - | - |
| 1778117403 | -0.56° C | 76% | 101 hPa | - | - | - | - |
| 1778116503 | 0° C | 78% | 101 hPa | - | - | - | - |
| 1778115602 | 0° C | 77% | 101 hPa | - | - | - | - |
| 1778114701 | 0° C | 79% | 101 hPa | - | - | - | - |
| 1778113805 | 0° C | 77% | 101 hPa | - | - | - | - |
| 1778112904 | - | 78% | 101 hPa | - | - | - | - |
| 1778112003 | 0° C | 81% | 101 hPa | - | - | - | - |
| 1778111103 | 0.56° C | 79% | 101 hPa | - | - | - | - |
| 1778110202 | 0.56° C | 80% | 101 hPa | - | - | - | - |
| 1778109301 | 1.11° C | 81% | 101 hPa | - | - | - | - |
| 1778108405 | 1.11° C | 79% | 101 hPa | - | - | - | - |
| 1778107504 | 1.11° C | 83% | 101 hPa | - | - | - | - |
* Rain since midnight (hover to see other rain measurements)
** Current wind speed in m/s (hover to see current wind gust speed)